Tacoma, WA

8:48 PM PST on February 08, 2016 (GMT -0800)
McChord Air Force Base

Weather History for KTCM - May, 2013

Change the Weather History Date:

Sunday, May 12, 2013

  Actual Average Record
Temperature  
Mean Temperature 64 °F -  
Max Temperature 70 °F 60 °F 81 °F (1973)
Min Temperature 57 °F 41 °F 31 °F (1985)
Degree Days  
Heating Degree Days 2    
Growing Degree Days 14 (Base 50)    
Moisture  
Dew Point 57 °F    
Average Humidity 88    
Maximum Humidity 100    
Minimum Humidity 63    
Precipitation  
Precipitation 0.10 in - - ()
Sea Level Pressure  
Sea Level Pressure 30.08 in    
Wind  
Wind Speed 4 mph (WSW)    
Max Wind Speed 9 mph    
Max Gust Speed -    
Visibility 9 miles    
Events Rain    
Averages and records for this station are not official NWS values.
T = Trace of Precipitation, MM = Missing Value Source: NWS Daily Summary

Daily Weather History Graph

Daily Weather History Graph

Search for Another Location

Airport or City:

Trip Planner

Search our weather history database for the weather conditions in past years. The results will help you decide how hot, cold, wet, or windy it might be!

Date:

Astronomy

May. 12, 2013 Rise Set
Actual Time 5:37 AM PDT 8:35 PM PDT
Civil Twilight 5:01 AM PDT 9:11 PM PDT
Nautical Twilight 4:15 AM PDT 9:57 PM PDT
Astronomical Twilight 3:20 AM PDT 10:53 PM PDT
Moon 7:34 AM PDT (5/12) 11:08 PM PDT (5/12)
Length of Visible Light 16h 10m
Length of Day
14h 58m
Waxing Crescent, 7% of the Moon is Illuminated
May 12
Waxing Crescent
May 17
First Quarter
May 24
Full
May 31
Last Quarter
Jun 8
New

Hourly Weather History & Observations

Time (PDT) Temp. Dew Point Humidity Pressure Visibility Wind Dir Wind Speed Gust Speed Precip Events Conditions
12:58 AM 63.0 °F 56.7 °F 80% 30.08 in 10.0 mi NW 2.3 mph - N/A   Scattered Clouds
1:06 AM 62.6 °F 57.2 °F 82% 30.07 in 10.0 mi Variable 1.2 mph - N/A Rain Light Rain
1:18 AM 62.6 °F 57.2 °F 82% 30.07 in 10.0 mi SSW 2.3 mph - N/A   Partly Cloudy
1:58 AM 60.4 °F 56.1 °F 86% 30.08 in 10.0 mi Variable 2.3 mph - 0.00 in   Scattered Clouds
2:58 AM 59.7 °F 57.2 °F 91% 30.07 in 10.0 mi SSE 3.5 mph - N/A   Overcast
3:56 AM 62.6 °F 57.2 °F 82% 30.08 in 10.0 mi SW 3.5 mph - N/A   Light Drizzle
3:58 AM 62.6 °F 57.2 °F 82% 30.09 in 10.0 mi WSW 4.6 mph - N/A   Light Drizzle
4:09 AM 60.8 °F 57.2 °F 88% 30.08 in 10.0 mi SSW 3.5 mph - N/A   Overcast
4:49 AM 60.8 °F 55.4 °F 82% 30.07 in 10.0 mi South 3.5 mph - N/A   Light Drizzle
4:58 AM 61.0 °F 56.7 °F 86% 30.09 in 10.0 mi SW 4.6 mph - 0.00 in Rain Light Rain
5:25 AM 59.0 °F 57.2 °F 94% 30.08 in 10.0 mi SW 4.6 mph - N/A   Overcast
5:58 AM 59.0 °F 56.7 °F 92% 30.10 in 10.0 mi SSW 4.6 mph - 0.01 in   Overcast
6:03 AM 59.0 °F 57.2 °F 94% 30.08 in 10.0 mi SSW 4.6 mph - N/A   Overcast
6:10 AM 59.0 °F 57.2 °F 94% 30.09 in 10.0 mi South 2.3 mph - N/A Rain Light Rain
6:20 AM 59.0 °F 57.2 °F 94% 30.09 in 10.0 mi SSW 2.3 mph - N/A   Overcast
6:32 AM 59.0 °F 57.2 °F 94% 30.08 in 10.0 mi SSE 3.5 mph - N/A Rain Light Rain
6:53 AM 59.0 °F 57.2 °F 94% 30.08 in 10.0 mi South 3.5 mph - N/A   Overcast
6:58 AM 58.8 °F 57.6 °F 96% 30.08 in 10.0 mi SSE 4.6 mph - 0.00 in   Overcast
6:59 AM 59.0 °F 57.2 °F 94% 30.07 in 10.0 mi SSE 4.6 mph - N/A Rain Light Rain
7:09 AM 59.0 °F 57.2 °F 94% 30.08 in 10.0 mi SSE 4.6 mph - N/A   Mostly Cloudy
7:58 AM 60.6 °F 58.6 °F 93% 30.10 in 10.0 mi South 3.5 mph - 0.00 in   Scattered Clouds
8:33 AM 59.0 °F 57.2 °F 94% 30.11 in 10.0 mi WNW 8.1 mph - N/A   Mostly Cloudy
8:38 AM 59.0 °F 57.2 °F 94% 30.11 in 10.0 mi NW 8.1 mph - N/A   Overcast
8:43 AM 59.0 °F 57.2 °F 94% 30.11 in 10.0 mi NW 8.1 mph - N/A   Overcast
8:53 AM 59.0 °F 55.4 °F 88% 30.12 in 10.0 mi West 8.1 mph - N/A   Overcast
8:58 AM 59.7 °F 56.1 °F 88% 30.13 in 10.0 mi West 8.1 mph - N/A   Overcast
9:13 AM 59.0 °F 55.4 °F 88% 30.12 in 10.0 mi WNW 4.6 mph - N/A   Overcast
9:48 AM 60.8 °F 55.4 °F 82% 30.11 in 10.0 mi South 3.5 mph - N/A Rain Light Rain
9:58 AM 61.7 °F 55.9 °F 81% 30.12 in 10.0 mi Variable 1.2 mph - 0.00 in Rain Light Rain
9:59 AM 62.6 °F 57.2 °F 82% 30.11 in 10.0 mi SSW 2.3 mph - N/A   Scattered Clouds
10:58 AM 65.3 °F 56.1 °F 72% 30.11 in 10.0 mi South 6.9 mph - 0.00 in   Mostly Cloudy
11:58 AM 66.7 °F 57.0 °F 71% 30.12 in 10.0 mi South 9.2 mph - N/A   Overcast
12:58 PM 64.8 °F 56.5 °F 74% 30.12 in 10.0 mi WNW 4.6 mph - N/A   Overcast
1:58 PM 66.9 °F 57.0 °F 70% 30.12 in 10.0 mi Variable 2.3 mph - N/A   Mostly Cloudy
2:58 PM 70.2 °F 56.8 °F 63% 30.09 in 10.0 mi West 3.5 mph - N/A   Mostly Cloudy
3:58 PM 69.1 °F 56.1 °F 63% 30.08 in 10.0 mi NW 6.9 mph - N/A   Mostly Cloudy
4:58 PM 65.8 °F 56.1 °F 71% 30.07 in 10.0 mi NW 6.9 mph - N/A   Mostly Cloudy
5:58 PM 65.7 °F 56.7 °F 73% 30.07 in 10.0 mi NW 9.2 mph - N/A   Mostly Cloudy
6:58 PM 63.7 °F 56.1 °F 76% 30.06 in 10.0 mi West 3.5 mph - N/A   Overcast
7:18 PM 62.6 °F 55.4 °F 77% 30.05 in 10.0 mi West 4.6 mph - N/A   Overcast
7:23 PM 62.6 °F 55.4 °F 77% 30.05 in 10.0 mi WNW 3.5 mph - N/A   Overcast
7:28 PM 62.6 °F 55.4 °F 77% 30.05 in 10.0 mi WNW 4.6 mph - N/A   Overcast
7:33 PM 62.6 °F 55.4 °F 77% 30.05 in 10.0 mi NW 4.6 mph - N/A   Overcast
7:51 PM 62.6 °F 55.4 °F 77% 30.04 in 10.0 mi NW 5.8 mph - N/A Rain Light Rain
7:58 PM 61.9 °F 56.1 °F 81% 30.05 in 10.0 mi WNW 6.9 mph - 0.00 in Rain Light Rain
8:07 PM 60.8 °F 57.2 °F 88% 30.05 in 8.0 mi WNW 6.9 mph - N/A Rain Light Rain
8:12 PM 60.8 °F 57.2 °F 88% 30.05 in 2.5 mi NW 5.8 mph - N/A Rain Light Rain
8:17 PM 60.8 °F 57.2 °F 88% 30.05 in 2.0 mi NW 3.5 mph - N/A Rain Rain
8:22 PM 59.0 °F 57.2 °F 94% 30.05 in 6.0 mi West 4.6 mph - N/A Rain Light Rain
8:32 PM 59.0 °F 59.0 °F 100% 30.05 in 5.0 mi WNW 3.5 mph - N/A Rain Light Rain
8:42 PM 59.0 °F 57.2 °F 94% 30.05 in 10.0 mi WNW 5.8 mph - N/A   Overcast
8:58 PM 59.5 °F 57.2 °F 92% 30.05 in 10.0 mi WNW 5.8 mph - 0.04 in   Overcast
9:02 PM 59.0 °F 57.2 °F 94% 30.05 in 10.0 mi WNW 4.6 mph - N/A   Light Drizzle
9:11 PM 59.0 °F 57.2 °F 94% 30.05 in 10.0 mi West 4.6 mph - N/A   Overcast
9:21 PM 59.0 °F 57.2 °F 94% 30.06 in 10.0 mi West 3.5 mph - N/A   Overcast
9:23 PM 59.0 °F 57.2 °F 94% 30.06 in 10.0 mi West 3.5 mph - N/A Rain Light Rain
9:48 PM 59.0 °F 57.2 °F 94% 30.06 in 9.0 mi South 4.6 mph - N/A Rain Light Rain
9:53 PM 59.0 °F 59.0 °F 100% 30.07 in 7.0 mi SSW 5.8 mph - N/A Rain Light Rain
9:55 PM 59.0 °F 59.0 °F 100% 30.07 in 6.0 mi SSW 6.9 mph - N/A Rain Light Rain
9:58 PM 58.8 °F 58.3 °F 98% 30.08 in 5.0 mi SW 5.8 mph - 0.00 in Rain Light Rain
10:03 PM 59.0 °F 59.0 °F 100% 30.07 in 4.0 mi SSW 6.9 mph - N/A Rain Light Rain
10:08 PM 59.0 °F 57.2 °F 94% 30.07 in 4.0 mi SW 8.1 mph - N/A Rain Light Rain
10:13 PM 59.0 °F 57.2 °F 94% 30.07 in 3.0 mi SW 5.8 mph - N/A Rain Light Rain
10:18 PM 59.0 °F 57.2 °F 94% 30.07 in 3.0 mi SSW 5.8 mph - N/A Rain Rain
10:23 PM 59.0 °F 57.2 °F 94% 30.07 in 5.0 mi SSW 5.8 mph - N/A Rain Light Rain
10:37 PM 59.0 °F 57.2 °F 94% 30.07 in 10.0 mi SW 5.8 mph - N/A   Overcast
10:42 PM 59.0 °F 57.2 °F 94% 30.07 in 10.0 mi SW 5.8 mph - N/A   Overcast
10:52 PM 59.0 °F 57.2 °F 94% 30.07 in 10.0 mi SW 6.9 mph - N/A   Overcast
10:57 PM 57.2 °F 57.2 °F 100% 30.06 in 10.0 mi SW 5.8 mph - N/A   Mostly Cloudy
10:58 PM 58.1 °F 57.7 °F 99% 30.07 in 10.0 mi SSW 5.8 mph - 0.04 in   Mostly Cloudy
11:03 PM 57.2 °F 57.2 °F 100% 30.06 in 10.0 mi SSW 6.9 mph - N/A   Overcast
11:37 PM 57.2 °F 57.2 °F 100% 30.07 in 10.0 mi SW 8.1 mph - N/A Rain Light Rain
11:58 PM 57.4 °F 57.0 °F 99% 30.08 in 10.0 mi SW 6.9 mph - 0.01 in   Light Drizzle